Hourly Data Report for April 03, 2006

TORONTO CITY
ONTARIO

43°40'00.000" N
79°24'00.000" W
112.50 m
6158355
71508
XTO

Download Data

Hourly Data (April 2006)
Hourly Data Report for April 3, 2006
TIME
LST
Temp Definition
°C
Dew Point Definition
°C
Rel Hum Definition
%
Precip. Amount Definition
mm

Wind Dir Definition
10's deg

Wind Spd Definition
km/h
Visibility Definition
km
Stn Press Definition
kPa
Hmdx Definition


Wind Chill Definition


Weather Definition


00:00 5.5 -1.6 60   LegendMM LegendMM   99.77     LegendNANA
01:00 6.0 -1.2 60   LegendMM LegendMM   99.62     LegendNANA
02:00 5.7 -0.6 64   LegendMM LegendMM   99.48     LegendNANA
03:00 5.5 0.5 70   LegendMM LegendMM   99.33     LegendNANA
04:00 5.0 1.4 78   LegendMM LegendMM   99.23     LegendNANA
05:00 4.6 2.5 86   LegendMM LegendMM   99.10     LegendNANA
06:00 4.7 3.6 93   LegendMM LegendMM   98.98     LegendNANA
07:00 4.9 3.9 93   LegendMM LegendMM   98.94     LegendNANA
08:00 5.1 4.4 95   LegendMM LegendMM   98.87     LegendNANA
09:00 5.4 4.5 94   LegendMM LegendMM   98.82     LegendNANA
10:00 7.8 6.2 90   LegendMM LegendMM   98.71     LegendNANA
11:00 10.7 7.9 83   LegendMM LegendMM   98.62     LegendNANA
12:00 10.5 7.4 81   LegendMM LegendMM   98.53     LegendNANA
13:00 11.6 7.7 77   LegendMM LegendMM   98.35     LegendNANA
14:00 11.9 7.9 76   LegendMM LegendMM   98.15     LegendNANA
15:00 10.1 8.0 87   LegendMM LegendMM   98.19     LegendNANA
16:00 9.5 8.6 94   LegendMM LegendMM   98.20     LegendNANA
17:00 11.0 9.2 89   LegendMM LegendMM   98.19     LegendNANA
18:00 9.8 7.8 87   LegendMM LegendMM   98.27     LegendNANA
19:00 8.8 6.1 83   LegendMM LegendMM   98.42     LegendNANA
20:00 5.8 2.4 79   LegendMM LegendMM   98.62     LegendNANA
21:00 5.3 1.2 75   LegendMM LegendMM   98.76     LegendNANA
22:00 5.1 0.9 74   LegendMM LegendMM   98.94     LegendNANA
23:00 4.9 0.5 73   LegendMM LegendMM   99.04     LegendNANA

Notes on Data Quality.

Legend

  • E = Estimated
  • M = Missing
  • NA = Not Available*
  • [empty] = Indicates an unobserved value
Date modified: